Location: Seasalter
(51.3333°N, 1.0167°E)
Time: 13:56:06
(UTC+00:00)

Cosmos 2333 - Pass Details

Date: 26 September 2023
Orbit: 828 x 866 km, 70.9° (Epoch: 10 December)

Event Time Altitude Azimuth Distance (km) Brightness Sun altitude
Rises 04:12:46 0° 327° (NNW) 3,421 7.2 -15.4°
Reaches altitude 10° 04:15:14 10° 325° (NW) 2,487 6.5 -15.1°
Maximum altitude 04:20:52 62° 246° (WSW) 962 4.2 -14.2°
Drops below altitude 10° 04:26:31 10° 167° (SSE) 2,494 6.6 -13.4°
Sets 04:28:59 0° 164° (SSE) 3,430 7.4 -13.0°
